OpenBCM V1.13 (Linux)

Packet Radio Mailbox

DB0FHN

[JN59NK Nuernberg]

 Login: GUEST





  
OZ1LQH > KEP      12.12.12 14:02l 75 Lines 3136 Bytes #999 (0) @ WW
BID : ARLK097
Read: DK3UZ DL3SEU DG4YDF GUEST
Subj: ARLK097 Keplerian data
Path: DB0FHN<DB0PM<OE2XEL<OE6XPE<UA6ADV<7M3TJZ<ZL2BAU<GB7YEW<PI8CDR<PI8HGL<
      PI8ZAA<OZ5BBS
Sent: 121212/1022Z @:OZ5BBS.FYN.DNK.EU #:22750 [Odense] $:ARLK097
From: OZ1LQH@OZ5BBS.FYN.DNK.EU
To  : KEP@WW

ZCZC SK97
QST de W1AW  
Keplerian Bulletin 97  ARLK097
From ARRL Headquarters
Newington, CT  December 11, 2012
To all radio amateurs 

SB KEP ARL ARLK097
ARLK097 Keplerian data

Special thanks to Space-Track.org for the following Keplerian data.

Decode 2-line elsets with the following key:
1 AAAAAU 00  0  0 BBBBB.BBBBBBBB  .CCCCCCCC  00000-0  00000-0 0  DDDZ
2 AAAAA EEE.EEEE FFF.FFFF GGGGGGG HHH.HHHH III.IIII JJ.JJJJJJJJKKKKKZ
KEY: A-CATALOGNUM B-EPOCHTIME C-DECAY D-ELSETNUM E-INCLINATION F-RAAN
G-ECCENTRICITY H-ARGPERIGEE I-MNANOM J-MNMOTION K-ORBITNUM Z-CHECKSUM

AO-07
1 07530U 74089B   12345.43548631 -.00000027  00000-0  10000-3 0  5532
2 07530 101.4146 335.9183 0011859 298.5566 061.4318 12.53593315742138
AO-16
1 20439U 90005D   12346.55302237  .00000099  00000-0  52716-4 0  6265
2 20439 098.4495 285.1320 0011112 359.0730 001.0430 14.32119661195381
AO-27
1 22825U 93061C   12345.56350251  .00000035  00000-0  30930-4 0  2631
2 22825 098.5956 285.8029 0009133 119.2459 240.9631 14.29516517  1685
FO-29
1 24278U 96046B   12345.77654555 -.00000071  00000-0 -33052-4 0  9983
2 24278 098.5840 063.3222 0349766 292.2952 064.1453 13.52992823805834
ISS
1 25544U 98067A   12346.79711644  .00007394  00000-0  12755-3 0  8170
2 25544 051.6491 319.2281 0016476 030.8220 036.4612 15.52022858805602
NO-44
1 26931U 01043C   12345.73254406 -.00000190  00000-0 -41532-4 0  2089
2 26931 067.0530 025.3034 0004860 261.0428 099.0126 14.29866778584486
SO-50
1 27607U 02058C   12345.47571168  .00000421  00000-0  85064-4 0  9377
2 27607 064.5570 118.5342 0069301 212.1887 147.4958 14.72672417535926
CO-55
1 27844U 03031E   12345.01474091  .00000135  00000-0  82278-4 0  5281
2 27844 098.7022 350.8427 0010554 075.5618 284.6714 14.21126969489869
RS-22
1 27939U 03042A   12346.47832297  .00000354  00000-0  75494-4 0  9846
2 27939 097.7992 178.1197 0014485 063.9350 296.3348 14.64252665491827
VO-52
1 28650U 05017B   12346.41741849  .00000262  00000-0  37870-4 0  2877
2 28650 097.5830 008.5904 0026138 175.9799 184.1638 14.83429579411243
CO-58
1 28895U 05043F   12345.60475392  .00000290  00000-0  68223-4 0  3502
2 28895 097.8888 203.8916 0016979 318.7972 041.1952 14.60882888379419
CO-65
1 32785U 08021C   12345.86296766  .00000840  00000-0  10849-3 0  4937
2 32785 097.7790 042.5559 0014049 200.1271 159.9410 14.83447040249950
COMPASS 1
1 32787U 08021E   12345.68547738  .00001306  00000-0  16002-3 0  4875
2 32787 097.7787 042.9783 0014486 199.3485 160.7179 14.84760709249999
DO-64
1 32789U 08021G   12345.85871148  .00001989  00000-0  22676-3 0  4995
2 32789 097.7934 046.4094 0013869 193.4891 166.5989 14.87181096250128
RS-30
1 32953U 08025A   12346.52433321  .00000010  00000-0  00000+0 0  4025
2 32953 082.4999 184.8681 0018220 283.7022 076.2026 12.43030161206594
KKS-1
1 33499U 09002H   12345.84488868  .00000558  00000-0  96872-4 0  9206
2 33499 098.1290 100.4809 0009262 225.5724 134.4724 14.72047438208417

Keplerian bulletins are transmitted twice weekly from W1AW.  The
next scheduled transmission of these data will be Friday, December
14, 2012, at 2330z on Baudot and BPSK31.
NNNN


Read previous mail | Read next mail


 27.07.2026 20:04:53lGo back Go up